GFSCGP_sfc_30mbdewp_147.txt.gz
Dewpoint
34 31 29 30 30 29 27 24 23 24 24 22 21 22 22 22 21 22 31 32 39 46 49 50 51 52 53 55 56 51 48 48 49 51 59 59 60 61 61 63 64 62 61 61
31 30 31 31 30 29 27 24 23 24 23 21 18 18 20 20 20 22 31 37 45 47 48 50 51 52 54 55 57 54 49 49 50 53 59 58 58 60 62 63 64 64 63 62
29 29 30 31 30 28 26 24 24 23 22 23 19 19 20 23 30 36 38 45 47 47 48 49 51 52 55 56 58 57 53 50 51 57 59 60 60 62 61 61 62 63 64 63
29 30 29 28 26 27 21 25 25 23 21 18 18 14 17 21 34 36 38 45 47 48 49 49 51 53 55 57 59 58 57 53 54 58 58 58 58 58 59 60 61 61 62 63
28 26 27 26 25 24 23 24 22 22 20 21 20 18 18 25 34 36 37 46 47 48 49 49 51 54 56 57 58 59 59 57 58 58 59 58 57 57 58 59 60 59 58 61
27 28 25 26 26 26 26 24 24 24 23 20 20 19 17 24 29 35 40 46 48 48 49 49 54 55 56 57 57 57 57 59 60 59 60 58 57 57 57 58 58 57 57 57
26 26 27 25 23 23 24 22 19 19 22 19 26 23 20 26 33 35 42 46 47 48 49 52 54 53 54 55 56 56 56 57 58 60 59 57 56 56 55 57 57 56 55 56
23 21 26 25 23 21 24 22 17 13 23 25 27 23 24 30 35 39 45 46 48 48 49 51 53 53 53 54 55 55 55 55 57 57 58 58 57 56 56 56 56 55 54 54
23 24 26 26 23 23 22 22 26 23 24 18 20 25 32 36 37 43 45 47 47 47 48 51 53 53 53 54 54 54 55 55 55 56 56 56 56 56 55 55 55 55 53 53
26 24 23 24 24 24 23 25 21 22 17 17 19 21 17 33 36 43 45 46 47 47 47 51 52 53 53 54 54 54 54 55 55 55 54 54 54 54 54 54 52 53 54 53
27 26 23 22 22 21 21 21 22 22 24 19 16 17 19 31 37 39 44 46 47 47 48 50 52 52 53 53 53 53 53 53 53 53 53 53 52 52 52 52 52 52 52 53
31 27 24 24 23 23 22 20 21 19 18 19 19 17 19 30 37 39 42 46 47 47 48 51 51 52 52 52 52 52 53 52 52 52 52 52 51 51 51 51 51 52 51 51
35 29 23 22 23 22 21 21 21 22 22 19 16 16 28 33 36 38 41 46 47 47 47 50 50 51 51 51 52 52 52 52 52 52 51 51 51 51 51 51 51 51 50 51
37 31 27 21 21 22 19 20 21 22 20 19 19 19 24 29 33 35 41 46 47 47 47 48 49 49 50 51 51 51 51 51 50 49 50 50 50 50 50 50 49 49 49 48
36 31 30 29 24 21 20 20 21 20 21 19 19 19 20 23 29 35 42 46 47 47 46 47 48 49 49 50 50 50 50 49 48 48 47 46 47 47 46 45 43 42 42 42
37 31 32 29 28 26 24 25 21 21 21 20 20 19 21 22 28 40 42 45 47 47 46 46 47 48 48 49 49 50 49 47 47 46 45 45 43 42 41 40 40 40 39 39
30 32 31 27 30 26 25 25 24 23 21 20 19 20 22 24 26 39 41 43 46 47 47 46 46 47 47 48 49 48 48 47 46 45 45 44 42 42 41 40 40 39 39 39
28 29 29 28 30 24 27 25 23 22 21 21 21 22 23 25 26 36 42 42 45 47 47 47 47 47 47 48 48 48 47 47 46 45 45 44 43 42 41 40 38 37 38 38
31 28 24 26 28 28 26 26 25 22 22 23 22 22 23 25 29 29 41 43 44 47 48 48 48 47 46 48 48 47 46 47 46 46 45 44 43 41 40 38 37 36 36 36
26 29 26 24 23 24 23 27 27 27 23 24 22 23 23 24 23 27 37 43 44 47 49 49 48 47 46 47 48 47 46 46 45 45 44 43 42 40 38 37 36 35 35 35
24 26 24 24 21 25 27 25 29 24 22 23 23 23 24 23 22 24 37 42 45 48 49 49 48 47 46 47 48 48 47 46 45 43 42 41 41 39 37 35 33 31 32 32
18 22 25 24 22 19 22 23 27 26 24 25 26 26 26 26 26 27 37 41 46 48 49 49 48 47 48 48 47 45 46 44 42 41 40 39 38 35 33 31 30 30 31 30
15 21 28 30 25 25 25 19 21 30 27 27 27 27 31 28 27 30 37 42 46 48 49 48 46 47 47 47 45 42 42 40 39 38 37 36 35 33 31 30 30 30 30 30
22 23 21 26 27 31 29 27 28 30 28 27 27 28 31 29 28 32 39 42 46 48 48 47 45 45 45 44 41 41 37 37 36 34 34 33 33 31 30 30 30 30 30 30
23 28 28 29 28 26 28 29 26 25 25 28 27 27 29 32 29 33 39 43 46 47 47 45 45 44 44 42 39 37 35 34 32 31 31 31 32 31 30 30 30 29 29 30
27 26 24 23 30 30 27 28 30 30 30 30 27 27 29 34 32 35 39 43 46 47 47 45 45 44 44 43 39 36 33 32 30 29 29 29 31 29 29 30 32 33 30 33

GFSCGP_sfc_30mbdewp_150.txt.gz
Dewpoint
34 31 29 29 29 28 28 26 25 25 25 24 24 25 24 26 26 25 28 32 43 47 50 51 52 53 54 54 55 56 50 49 51 51 54 59 60 62 64 64 63 62 62 59
32 31 32 31 31 30 29 28 27 26 26 23 22 20 21 22 21 21 21 34 45 47 49 50 52 52 54 55 57 57 52 49 50 51 56 58 58 59 61 63 64 63 61 61
30 29 32 32 31 30 30 28 26 24 25 24 21 20 20 22 29 33 31 40 47 47 48 50 51 52 54 55 57 58 56 52 50 53 58 59 59 60 60 62 62 63 62 61
30 31 31 30 30 30 28 29 26 25 21 19 19 17 18 18 30 37 42 46 47 48 49 50 51 52 54 56 58 59 58 57 52 54 58 55 57 57 59 59 61 61 63 63
29 29 29 29 29 28 28 25 23 22 20 21 20 18 18 24 29 37 43 46 47 48 49 49 51 54 55 57 57 58 58 58 57 56 58 57 57 57 58 59 60 60 59 62
28 29 28 28 28 28 27 24 25 26 23 20 21 19 16 19 26 35 42 46 47 48 49 51 54 55 55 56 57 57 58 58 59 58 58 57 57 56 57 56 58 58 58 58
28 28 28 27 25 26 25 23 20 18 20 17 23 21 19 23 29 35 41 46 47 48 49 52 52 53 54 54 55 56 57 57 59 58 57 57 56 56 56 56 57 57 56 56
25 23 25 27 25 23 24 23 20 11 18 21 27 24 26 32 33 37 44 47 48 48 50 53 52 52 53 54 55 55 56 57 58 58 58 57 57 56 56 56 57 56 56 56
24 24 26 25 25 25 23 22 24 21 26 20 20 22 25 37 40 43 45 47 47 48 49 51 52 52 53 53 54 55 55 55 56 56 56 56 56 56 55 55 55 55 54 54
25 23 25 26 26 25 23 25 22 23 17 15 16 19 16 33 39 44 45 46 47 48 49 51 52 52 53 54 54 54 55 54 55 55 55 55 55 55 54 53 53 53 54 53
29 25 23 23 23 23 23 22 22 22 22 18 16 17 23 28 37 42 45 46 47 47 48 51 52 52 53 54 54 54 54 54 53 53 53 53 53 53 53 52 52 53 53 53
35 33 25 25 23 25 24 22 23 19 19 21 19 17 22 27 36 43 45 46 47 47 49 51 51 52 52 53 53 53 53 52 52 52 52 51 51 52 51 51 52 52 52 52
35 31 26 24 25 26 22 22 22 23 23 18 16 16 28 32 37 43 45 46 47 48 49 50 51 51 52 52 52 52 52 52 52 52 51 51 51 51 50 50 51 51 51 52
35 34 30 25 27 29 23 22 21 21 20 20 20 19 24 32 37 40 44 46 47 47 49 49 50 51 51 52 51 51 51 51 51 51 50 50 50 50 50 50 48 48 49 50
30 25 31 33 32 31 29 25 22 20 20 19 20 20 21 25 33 38 42 46 46 47 47 48 49 50 51 51 51 51 51 50 49 48 48 49 49 47 45 43 43 44 44 43
36 23 27 27 29 31 31 29 23 21 21 21 21 20 22 23 28 36 41 46 46 47 47 47 48 49 50 50 50 50 49 49 48 47 46 45 44 43 42 42 41 41 41 41
26 25 24 13 23 30 28 31 26 23 22 21 20 21 22 22 24 33 41 46 46 47 47 47 47 48 49 50 50 49 48 48 47 46 45 44 43 42 41 41 41 40 40 40
29 26 25 20 19 11 24 32 28 26 26 26 23 22 23 23 24 30 41 46 46 47 46 46 47 48 49 49 50 49 47 46 46 45 44 43 42 41 40 39 39 39 39 39
28 25 20 15 14 10 22 24 29 24 24 26 25 24 24 25 28 28 41 45 47 47 47 47 47 47 48 49 49 48 47 47 46 45 44 43 42 41 39 38 38 38 38 38
29 27 23 19 18 -0 20 27 27 27 24 27 25 24 24 26 23 25 38 43 46 48 47 47 47 47 48 49 48 47 47 46 46 45 45 43 41 39 37 37 37 37 37 37
23 26 22 21 17 17 25 25 23 21 24 26 26 26 25 24 24 25 33 43 46 48 48 48 47 47 47 48 47 47 47 47 47 45 43 42 40 38 37 36 35 35 34 34
11 17 21 23 20 16 25 22 17 25 28 25 27 28 27 28 27 27 34 43 46 48 48 48 47 46 47 48 47 46 47 47 45 44 42 41 39 38 36 34 33 33 32 31
15 16 14 20 20 26 31 24 26 31 29 30 29 29 29 29 29 30 37 43 47 48 48 48 47 46 47 48 48 47 47 45 43 42 41 40 37 36 34 32 31 31 31 30
22 24 22 20 21 23 23 24 26 29 30 30 28 29 27 27 30 31 39 44 47 48 48 48 47 47 46 48 48 47 45 44 42 40 39 37 35 33 31 31 31 31 30 30
18 23 22 24 23 29 31 31 29 28 28 30 31 33 35 31 30 31 39 45 47 48 48 48 47 47 47 48 46 45 43 42 40 38 37 36 34 32 30 30 30 31 31 30
22 20 21 20 20 24 23 26 30 33 33 34 34 33 35 32 30 34 40 46 47 48 48 47 47 47 47 46 44 41 41 40 38 36 35 34 34 31 30 30 31 33 32 34

GFSCGP_sfc_30mbdewp_153.txt.gz
Dewpoint
34 31 29 29 27 25 26 26 25 26 27 27 26 25 26 27 28 26 26 29 34 40 49 51 52 53 53 54 54 55 54 49 50 51 54 58 58 61 61 62 62 62 60 60
32 31 31 32 31 29 28 28 27 28 28 26 24 23 24 24 24 24 25 26 35 46 49 50 51 52 54 55 56 57 56 50 50 50 54 57 57 59 61 62 62 62 61 60
30 31 32 32 31 30 29 28 28 27 27 25 21 20 20 22 23 27 28 26 41 46 47 50 51 52 53 54 56 58 57 54 50 51 54 57 58 59 57 59 61 61 61 60
31 31 31 32 31 31 28 31 30 29 26 21 20 18 20 20 22 34 38 38 45 47 48 50 51 52 53 55 57 58 57 57 55 51 54 55 53 52 58 59 60 61 61 61
31 30 30 30 29 31 28 30 29 28 23 21 20 19 19 23 20 28 40 44 46 47 48 50 51 53 55 56 56 57 57 57 55 53 56 56 56 56 57 58 58 59 59 62
31 31 31 30 30 31 29 26 25 27 23 20 21 20 18 17 21 32 42 45 46 47 49 51 53 54 54 55 56 57 57 58 57 57 57 56 56 56 56 57 58 58 58 59
30 29 29 28 26 27 27 24 21 19 21 20 22 20 19 21 22 32 39 44 47 48 49 52 52 52 53 53 55 56 57 57 58 57 57 56 56 56 56 56 56 57 57 56
26 24 28 29 27 25 25 24 22 19 16 18 26 22 23 30 36 35 40 45 47 48 50 51 51 52 52 53 54 55 56 57 57 57 56 56 56 55 55 55 56 56 56 56
25 26 27 27 27 27 24 23 25 21 24 21 21 22 20 37 39 40 43 46 47 48 50 51 51 52 52 52 54 55 55 55 56 56 56 55 56 55 55 55 56 56 56 56
25 23 26 26 26 26 24 26 22 23 18 17 18 18 16 22 35 43 44 45 47 48 50 51 51 52 53 53 54 55 55 54 55 55 55 54 55 55 54 54 53 54 54 54
34 26 23 24 23 23 23 23 23 23 22 16 14 16 23 21 30 39 44 46 47 47 49 50 51 52 53 53 53 54 54 53 53 53 53 53 53 53 53 52 53 53 53 53
34 33 27 23 24 25 24 23 23 20 20 22 20 17 22 26 29 42 45 46 47 48 49 50 51 52 52 52 53 53 53 52 52 52 52 52 52 52 51 51 52 53 52 52
32 31 26 25 26 27 25 23 23 23 22 20 18 18 27 33 37 43 45 46 47 47 49 50 50 51 52 52 52 52 52 52 52 52 51 51 51 51 50 51 51 52 52 52
34 33 31 26 28 32 29 30 29 26 21 20 19 18 21 29 34 42 45 46 47 47 48 49 49 50 51 52 52 52 51 52 51 51 50 50 50 50 49 48 48 50 51 51
30 23 28 30 30 30 31 30 31 30 27 21 21 21 22 23 27 36 44 46 47 47 48 49 49 50 51 51 51 51 51 50 50 49 49 49 48 46 45 45 45 45 46 48
35 23 22 21 27 26 26 28 28 26 30 28 21 21 23 23 28 34 42 46 46 47 48 48 49 50 50 51 51 51 50 49 49 48 48 45 44 44 43 42 42 42 43 44
26 24 22 15 14 14 18 18 21 23 29 28 21 22 23 22 24 27 37 44 46 46 47 48 48 49 50 50 51 50 49 48 48 46 45 44 43 42 42 42 42 42 42 42
25 25 25 16 14 5 8 18 22 25 28 29 27 23 24 24 24 25 33 40 45 47 47 47 48 49 50 50 50 49 49 48 47 46 44 43 42 41 40 41 41 40 40 41
25 25 19 12 15 10 4 1 26 28 27 30 28 28 27 27 27 26 28 39 43 47 47 48 48 49 49 50 50 48 47 47 46 45 44 43 42 40 40 40 39 39 39 39
29 24 17 17 15 8 11 22 13 26 20 28 28 27 27 27 24 24 27 39 44 47 48 47 48 48 49 49 49 48 47 46 46 45 44 43 41 40 40 39 38 38 38 38
23 24 20 18 16 17 18 17 22 20 18 30 29 27 26 27 27 29 29 40 45 47 47 47 47 47 48 49 49 48 47 46 46 45 44 42 40 39 38 37 37 37 36 35
21 20 20 19 17 13 20 20 15 24 23 24 24 29 30 30 29 29 30 38 46 47 47 47 47 47 48 48 48 48 47 47 46 44 43 41 39 37 36 36 35 35 34 33
9 12 13 19 18 24 28 23 21 21 20 23 26 31 31 29 29 31 31 34 46 47 47 47 47 47 48 48 48 47 47 47 45 43 42 40 38 36 35 34 33 33 32 31
18 20 16 19 20 18 20 22 24 25 26 27 28 28 29 31 32 33 33 36 46 48 47 47 47 47 47 47 47 47 47 46 44 43 41 39 37 35 33 33 33 31 30 28
20 22 21 21 22 21 21 23 23 25 31 32 32 32 31 32 34 34 33 36 46 48 48 47 47 47 47 48 47 47 46 44 43 42 40 38 37 34 32 32 32 31 31 29
21 18 18 15 15 15 16 18 22 24 26 28 33 34 35 35 35 34 33 36 46 48 48 47 47 47 47 48 47 46 45 44 42 41 39 37 36 33 32 31 31 34 33 34

GFSCGP_sfc_30mbdewp_156.txt.gz
Dewpoint
33 31 29 29 28 24 24 24 24 26 26 28 27 27 26 27 28 27 28 28 30 32 44 50 51 52 53 53 53 54 54 52 50 51 55 59 58 60 60 61 63 63 62 61
32 30 31 31 30 27 27 25 24 27 28 28 27 26 26 26 25 26 26 27 28 35 46 50 51 52 53 54 56 56 56 55 49 51 54 56 57 59 59 60 61 61 60 60
31 31 33 32 31 29 29 27 27 25 28 28 23 21 21 21 24 24 26 26 28 34 44 49 50 51 53 54 55 57 57 56 50 51 52 56 58 58 57 59 60 59 60 61
32 32 31 32 31 31 28 30 29 29 29 25 21 20 21 21 21 24 33 35 34 43 47 49 50 51 52 55 57 57 57 56 56 52 52 53 52 52 56 56 60 60 60 60
30 31 31 30 30 32 29 31 30 30 28 24 21 19 20 21 20 21 29 39 43 46 48 49 50 52 55 55 56 57 57 56 54 52 53 54 55 56 57 58 59 59 60 61
31 32 32 31 31 31 31 28 26 27 23 20 21 21 21 19 18 27 37 42 45 47 48 50 52 54 54 55 56 57 56 57 56 56 56 55 55 55 56 57 56 57 58 60
29 30 30 30 28 30 29 24 23 21 21 20 23 20 21 22 22 25 29 41 46 47 48 51 52 52 52 53 54 56 56 56 57 56 56 56 56 55 55 56 56 56 56 56
25 25 30 30 27 26 27 26 23 18 17 18 25 20 20 28 34 37 36 43 46 47 49 51 51 52 52 53 54 55 56 56 56 56 55 55 55 55 54 54 55 55 56 56
26 27 29 30 30 27 25 25 26 22 24 21 22 23 22 32 36 40 40 44 46 47 49 50 51 51 52 52 53 55 55 56 56 56 56 55 55 54 53 54 55 56 55 55
29 24 26 27 27 28 26 26 23 24 20 19 20 19 18 18 21 39 42 43 46 47 49 50 50 51 52 53 54 55 55 54 55 55 55 54 55 54 53 53 53 54 55 55
30 30 24 26 25 27 25 24 23 24 23 18 15 16 22 21 22 28 41 44 46 47 49 50 50 51 51 52 53 54 54 53 53 53 53 53 53 53 53 52 53 53 53 54
30 33 29 24 25 27 25 25 25 21 21 22 19 17 22 30 30 34 42 45 47 47 49 50 50 51 51 51 53 52 53 52 52 52 52 52 52 52 52 52 52 53 52 52
31 31 27 25 26 29 27 29 30 26 23 21 19 19 25 34 38 42 43 46 47 47 49 49 50 50 50 51 52 52 52 52 52 52 51 51 51 51 50 51 52 52 52 52
28 29 23 23 28 31 29 29 28 30 24 23 21 21 22 25 33 40 43 46 46 47 48 49 49 50 51 51 52 52 52 52 51 51 50 50 50 49 48 48 49 50 51 51
27 24 27 28 27 29 29 26 26 24 29 27 27 27 24 22 23 33 39 45 46 46 47 48 48 49 51 51 52 51 51 51 50 50 49 48 46 45 45 46 46 47 49 50
29 22 23 21 22 27 24 27 24 23 22 25 25 28 29 24 29 29 35 44 45 46 47 48 48 49 50 50 51 51 50 50 49 49 47 45 45 44 44 44 43 44 46 48
27 23 22 16 17 15 15 19 24 16 18 21 19 27 29 26 24 25 31 42 42 45 47 48 48 49 50 50 51 50 50 49 48 47 45 44 44 44 43 43 43 43 43 45
27 23 22 13 15 6 7 9 11 14 18 27 27 29 30 29 26 25 29 34 39 45 46 48 49 49 50 51 51 50 49 48 47 46 44 43 43 42 42 42 42 41 42 42
28 25 19 13 14 10 5 4 4 21 19 26 29 29 28 29 29 27 28 32 33 42 46 48 49 49 50 50 50 49 48 48 47 46 44 43 42 42 41 41 40 40 40 41
27 25 17 18 12 1 3 19 20 19 19 27 29 27 28 29 25 26 29 30 32 40 46 48 49 49 50 50 49 49 48 47 47 45 44 43 41 41 40 39 39 38 39 39
25 23 16 14 14 15 16 16 19 10 18 24 23 22 23 28 29 30 31 31 34 44 47 48 48 49 49 50 48 48 48 47 47 45 44 42 41 40 39 38 37 37 37 36
19 20 19 19 16 12 18 20 14 19 21 21 20 22 25 30 32 30 31 32 36 46 47 48 48 48 49 49 48 47 47 48 46 45 43 41 39 39 38 37 36 36 34 34
19 19 19 19 16 16 23 21 21 21 20 21 24 24 28 30 30 30 31 33 34 47 47 47 47 48 49 49 48 47 48 47 46 44 42 40 38 37 37 36 35 34 33 32
15 20 15 19 18 20 23 21 22 22 20 23 25 29 31 32 33 32 32 34 35 47 47 47 47 47 48 48 48 48 48 46 45 43 41 38 37 35 35 34 34 33 32 30
17 20 18 18 19 21 21 21 20 20 22 24 27 30 30 32 33 35 36 35 35 47 47 47 47 47 47 48 48 48 47 45 44 42 40 38 37 35 34 33 33 32 31 30
21 20 17 14 18 15 13 14 16 16 16 24 25 27 29 30 32 36 36 36 36 47 47 47 47 47 47 47 47 47 46 45 43 41 39 38 35 34 33 33 33 34 32 33

GFSCGP_sfc_30mbdewp_159.txt.gz
Dewpoint
34 32 29 29 27 25 19 22 22 25 27 25 21 23 28 30 29 29 29 29 29 29 33 42 49 52 53 53 53 54 54 54 52 52 59 60 60 60 60 63 64 64 63 63
32 30 32 31 30 28 27 26 25 26 28 28 27 27 29 29 28 28 28 28 28 30 40 48 51 52 52 53 55 56 56 56 52 53 55 59 60 61 61 61 61 63 62 62
27 30 33 31 31 29 29 27 26 25 27 29 26 23 22 22 24 25 26 28 28 30 38 48 50 51 53 54 55 57 57 57 53 52 55 58 59 59 59 59 60 61 62 61
31 30 31 32 30 30 28 30 29 28 28 23 23 23 23 23 22 23 24 31 31 34 43 49 50 51 53 55 57 57 57 57 55 52 53 53 53 54 57 58 60 60 60 60
31 32 32 30 29 32 30 31 30 30 29 27 24 22 21 22 22 23 30 36 41 44 46 49 50 52 54 56 56 57 57 57 55 55 54 54 55 56 58 58 59 58 60 60
30 33 33 32 32 32 32 29 27 27 24 21 22 22 21 21 17 22 30 40 44 46 48 50 52 54 54 56 56 56 56 57 56 55 56 56 56 56 56 57 56 58 59 60
29 31 31 32 29 32 31 27 25 23 22 20 23 21 21 23 24 23 25 37 45 48 49 50 52 52 53 54 56 55 56 56 57 57 57 56 56 56 57 57 57 56 56 57
24 21 31 31 29 29 30 28 25 21 19 20 25 21 20 27 31 36 38 39 46 48 50 49 52 52 53 54 55 54 55 56 56 56 56 55 55 55 56 56 55 56 57 58
26 25 30 31 30 29 29 28 28 24 24 22 23 24 23 30 26 38 39 44 46 48 49 51 52 52 52 53 54 55 54 56 56 56 55 55 54 54 54 54 54 55 55 56
27 24 28 28 30 30 28 28 27 26 24 21 21 20 20 22 22 25 40 43 46 48 50 51 51 51 52 53 54 55 55 54 56 55 55 55 55 54 54 54 53 54 55 56
23 26 28 28 27 27 27 27 28 27 24 20 17 17 22 24 24 29 36 44 46 48 49 50 50 51 52 53 54 54 54 54 54 54 54 54 54 53 53 53 53 53 54 54
31 23 24 28 28 29 28 27 28 28 25 22 19 18 24 30 36 40 42 45 46 48 48 50 50 51 51 52 52 53 53 53 53 53 53 53 53 52 52 52 52 53 52 53
25 28 22 27 27 32 32 31 30 29 26 23 20 20 27 35 37 42 43 45 46 48 49 49 49 49 50 51 51 51 52 52 52 52 52 51 51 51 51 52 52 52 52 52
28 29 26 20 24 30 28 30 31 27 25 25 23 22 22 26 29 36 42 45 46 47 49 49 49 49 50 51 51 52 52 52 51 51 51 50 49 49 49 49 50 51 51 51
26 22 23 24 24 30 28 27 29 27 25 24 26 24 24 26 28 28 35 44 46 46 48 49 49 48 50 51 51 51 51 51 51 50 49 47 46 46 47 46 48 49 50 51
27 22 22 21 22 21 21 26 27 28 24 20 22 21 26 28 28 28 32 41 44 46 47 48 48 49 50 50 50 51 51 50 50 48 47 46 45 45 45 45 46 47 48 49
24 22 22 18 20 17 14 16 18 21 19 15 17 23 21 23 29 29 27 37 41 44 46 48 48 48 50 50 50 50 50 49 48 46 45 45 45 44 44 44 44 45 46 48
23 24 23 19 16 9 10 12 12 21 26 21 18 18 25 30 31 30 29 30 35 41 45 47 48 48 50 50 50 50 50 49 47 46 45 44 44 43 43 43 43 43 44 45
27 24 21 18 14 12 11 8 2 8 17 24 23 25 28 29 30 28 30 30 30 32 35 45 49 49 50 50 50 50 49 48 47 45 44 43 43 42 42 42 42 42 43 43
27 27 23 17 14 8 3 16 18 17 22 27 21 20 21 25 24 28 30 31 31 32 39 47 49 50 50 50 50 49 48 47 47 45 44 43 43 42 41 41 40 40 42 42
23 23 20 19 16 13 12 14 19 7 17 23 21 20 21 24 26 29 33 31 32 34 45 48 49 49 50 50 49 49 48 48 47 45 44 42 42 40 40 40 40 40 40 40
17 20 19 20 18 11 17 18 10 13 22 22 20 22 23 27 30 32 32 32 33 35 46 48 49 49 50 49 49 48 48 48 46 45 43 42 40 39 39 39 38 38 38 38
18 21 20 19 16 17 18 17 22 21 19 18 21 24 27 29 29 32 34 34 34 36 45 48 49 48 49 49 48 48 48 47 46 44 42 40 39 39 38 38 36 36 36 36
21 21 19 20 18 19 20 24 23 23 20 19 22 25 27 29 30 30 33 35 36 36 45 48 48 48 49 48 48 48 48 47 45 43 41 39 38 38 37 37 36 35 34 34
17 20 19 19 17 19 20 22 22 19 20 22 23 21 28 27 28 30 32 35 36 37 44 48 48 47 48 48 48 48 47 46 45 43 40 38 39 37 37 37 36 34 33 33
21 20 16 13 16 14 13 15 17 17 16 17 19 21 24 27 28 30 31 35 35 37 43 47 47 48 48 48 48 48 47 46 44 42 39 38 37 36 36 35 34 34 34 34

GFSCGP_sfc_30mbdewp_162.txt.gz
Dewpoint
33 29 25 24 25 23 22 19 17 18 24 26 22 20 19 22 26 27 27 27 26 27 28 31 38 43 46 48 49 49 49 50 51 50 56 60 61 62 62 62 62 62 63 63
31 27 25 26 29 28 25 23 21 22 24 25 23 22 23 23 25 26 27 26 25 26 28 33 40 46 47 47 49 51 52 53 53 52 52 55 57 60 61 62 61 62 62 62
23 22 28 28 29 27 26 25 22 21 24 26 25 24 20 24 25 26 27 27 27 27 28 35 42 46 48 48 51 51 53 54 54 53 54 56 57 58 61 60 59 59 62 61
28 26 28 30 28 27 24 26 27 27 26 22 24 16 20 24 24 24 25 25 27 28 30 35 45 47 49 51 54 55 55 55 55 53 53 54 52 52 54 57 59 59 59 60
25 31 27 26 25 29 25 30 30 29 28 25 24 22 16 24 22 23 28 31 36 36 34 41 47 49 51 54 55 56 56 56 56 54 53 52 52 52 55 58 59 59 60 60
28 29 30 27 28 28 31 30 29 29 26 22 19 20 14 20 21 22 25 35 40 41 40 44 48 50 53 55 56 57 57 57 56 55 55 55 54 55 55 56 58 59 59 58
23 25 29 29 28 32 31 29 23 23 23 19 23 21 19 23 25 25 27 31 41 43 44 47 50 51 53 54 56 56 56 57 56 56 57 57 57 57 57 57 57 58 58 59
16 15 22 29 28 26 30 28 25 21 18 22 26 22 22 27 28 31 36 36 44 46 48 50 50 51 52 53 54 55 56 57 57 57 57 57 57 57 57 58 57 57 57 57
21 18 22 27 28 28 27 28 26 25 27 24 23 24 25 28 26 34 36 41 44 47 49 50 50 51 52 53 54 54 55 56 56 56 57 56 56 56 56 56 56 56 56 57
21 17 19 23 28 30 28 29 28 30 25 23 21 21 20 26 26 28 33 42 45 48 49 50 50 51 52 53 55 54 54 55 56 56 56 55 55 55 55 55 55 55 55 55
30 27 20 23 24 24 29 29 28 29 27 20 17 22 24 25 29 37 38 43 45 48 49 49 50 51 51 52 53 55 55 55 55 56 55 55 54 54 54 54 53 53 54 54
23 31 24 20 24 29 34 34 28 25 24 26 22 19 24 30 38 41 42 44 46 48 49 49 50 50 51 51 51 51 53 53 54 54 54 54 54 53 53 53 53 53 53 54
17 16 17 12 16 33 32 32 32 33 33 25 21 19 31 34 37 42 43 44 45 47 49 49 50 50 49 50 49 50 51 52 52 53 53 53 52 52 53 53 53 53 52 53
25 19 18 12 16 29 28 30 31 30 29 26 22 23 28 27 27 29 37 44 45 46 48 48 50 49 48 48 48 49 50 51 52 52 52 51 50 50 52 52 51 52 52 52
21 15 12 14 18 19 24 24 25 27 28 25 28 26 24 22 26 29 32 41 44 45 47 48 49 49 48 48 48 49 50 51 51 51 50 49 48 49 48 49 50 51 51 52
21 17 15 15 13 14 15 16 17 22 29 28 26 26 27 24 26 26 29 35 40 44 46 48 49 49 49 48 48 49 50 51 51 50 48 47 47 48 48 48 48 49 50 51
18 17 14 9 7 8 7 9 12 14 17 25 17 21 24 22 22 29 30 30 32 38 43 46 48 49 49 48 48 48 50 50 49 48 48 47 46 47 47 47 47 48 49 50
20 17 17 14 9 8 11 11 11 13 12 26 27 21 22 21 29 30 30 29 30 31 35 42 46 48 50 49 48 48 49 49 48 47 47 46 45 46 46 46 46 46 47 47
20 19 16 12 9 7 10 9 8 7 5 19 25 23 20 26 26 29 29 30 30 31 32 36 39 47 49 50 48 48 49 49 47 46 46 45 45 44 45 45 45 45 45 45
20 22 19 11 13 11 7 8 15 14 3 25 25 22 21 23 18 22 29 31 32 34 35 43 41 46 49 50 48 48 48 48 47 46 45 45 44 44 44 43 44 44 44 44
20 24 18 15 13 15 12 15 15 5 15 21 18 16 16 22 26 29 30 32 34 35 36 46 47 47 49 49 49 47 48 48 48 46 44 44 43 43 43 43 43 43 43 43
12 18 19 19 16 13 15 16 9 11 22 19 17 17 21 24 28 28 29 31 33 35 37 47 48 48 49 49 48 47 47 48 47 45 44 43 42 42 43 43 43 43 42 41
13 15 14 24 17 17 19 14 17 20 14 17 16 22 20 22 25 27 29 29 32 35 37 46 48 49 49 49 48 47 47 48 46 44 43 42 41 43 43 42 42 41 40 39
16 18 18 22 21 21 20 19 20 23 22 17 18 17 15 11 24 26 27 28 31 34 36 44 48 48 48 49 48 48 48 47 46 44 43 41 41 42 42 41 41 39 38 36
22 21 18 17 18 19 18 20 19 19 23 22 20 17 14 14 15 21 23 27 30 34 35 42 46 47 48 49 48 48 48 47 45 43 41 41 42 42 41 40 40 38 36 34
21 18 16 14 16 17 15 15 16 18 18 18 18 15 14 16 17 17 21 26 29 31 33 40 45 47 48 49 48 48 48 47 45 42 41 41 42 41 40 39 37 36 36 35

GFSCGP_sfc_30mbdewp_165.txt.gz
Dewpoint
32 28 25 26 23 23 22 20 18 18 16 18 21 22 22 21 21 20 21 20 21 24 25 28 30 32 37 40 41 45 48 48 48 50 54 60 60 60 61 62 62 62 60 60
26 28 27 26 24 23 23 22 21 20 21 21 22 21 22 22 23 23 22 22 23 21 24 25 29 34 39 42 45 47 48 49 50 49 49 51 54 57 58 59 61 61 60 62
22 24 26 25 24 23 26 23 22 21 22 23 21 21 22 21 22 24 24 25 25 24 23 24 30 38 42 43 46 48 49 50 52 52 52 54 54 56 57 58 59 59 59 61
24 25 25 23 24 24 23 24 24 23 24 21 22 19 20 20 19 21 23 24 25 26 27 27 32 38 44 44 47 49 50 52 52 53 52 53 52 53 54 56 58 58 57 58
24 25 28 24 23 26 24 25 25 27 25 24 22 21 21 20 18 19 22 31 32 30 28 29 36 42 46 48 51 52 53 54 54 53 53 52 52 51 52 54 56 57 58 57
25 27 26 26 27 25 25 26 28 28 26 22 20 19 19 19 19 19 25 30 36 37 34 31 41 45 48 52 53 54 54 55 55 55 54 54 52 52 52 54 55 58 59 59
18 21 25 26 26 27 27 25 24 23 23 22 19 21 21 21 24 25 24 28 38 40 37 41 45 48 51 53 55 55 56 55 55 54 54 54 54 54 54 54 56 57 58 59
15 13 14 14 23 24 24 26 24 20 17 18 25 24 24 25 27 30 30 33 39 42 42 45 48 50 52 54 54 54 55 55 56 57 57 57 57 57 57 58 57 57 57 58
15 10 14 18 21 26 26 25 28 24 23 22 23 24 25 25 26 30 31 37 39 43 46 48 49 50 51 53 54 54 55 55 56 56 57 56 56 56 56 57 57 56 57 56
21 21 17 15 15 21 24 27 26 30 27 22 19 16 18 23 25 33 34 39 42 47 49 49 49 50 51 53 53 54 55 55 56 56 56 56 55 55 55 55 55 56 56 56
15 21 17 18 18 15 15 23 24 32 30 18 14 12 20 23 30 36 39 42 44 47 49 48 49 50 50 54 54 54 54 54 55 56 56 55 54 54 54 54 54 54 55 54
11 11 10 12 16 18 21 31 34 29 27 27 21 14 25 30 38 39 41 43 45 48 48 48 49 49 50 52 54 53 54 53 54 55 54 54 54 54 54 53 53 53 53 54
13 8 7 4 3 7 27 33 33 29 32 30 25 17 26 35 35 35 39 43 45 47 48 48 48 48 49 50 50 50 50 51 52 53 53 53 53 53 53 53 53 53 53 53
20 17 15 11 8 12 19 29 31 30 24 25 28 30 28 25 30 31 31 39 44 46 47 47 48 47 47 48 48 49 49 51 52 51 51 52 52 52 52 52 52 52 53 52
14 12 10 9 8 7 8 9 24 26 30 24 25 27 31 29 24 33 35 35 41 44 47 47 49 48 47 46 46 48 48 50 51 50 51 50 50 50 50 50 51 51 52 53
13 12 12 9 8 5 5 5 8 18 22 30 28 27 28 26 25 23 35 35 33 41 45 47 49 48 47 46 46 47 48 49 50 50 49 49 49 49 49 50 50 51 52 52
16 15 13 9 4 3 3 3 2 5 10 13 21 23 28 22 26 28 31 32 31 34 39 45 48 49 48 47 47 47 47 50 50 49 49 48 49 48 48 48 49 50 50 51
17 18 17 14 8 6 7 7 5 2 7 9 12 24 29 23 27 27 29 30 30 31 33 39 45 49 49 48 47 47 47 49 49 48 48 47 48 48 47 47 47 47 48 49
18 19 19 15 8 4 2 2 9 7 7 8 8 20 25 26 27 25 29 30 31 32 33 34 37 43 49 49 48 47 47 48 48 48 47 46 47 47 47 46 46 46 47 48
15 17 18 14 11 5 1 15 7 9 6 7 12 19 22 25 23 22 30 31 33 35 36 38 44 39 48 49 48 47 47 48 47 47 46 46 46 46 46 45 45 45 46 46
18 21 19 17 17 8 5 15 11 4 9 12 20 21 20 24 26 30 28 29 32 35 37 44 46 42 47 49 48 47 47 47 47 47 46 45 45 45 45 45 44 44 44 44
11 16 15 18 18 13 12 15 8 16 21 21 19 17 19 22 26 26 27 28 30 34 37 44 47 46 48 49 48 47 47 48 47 45 45 44 44 44 45 44 43 43 43 43
20 15 15 20 13 18 25 23 17 15 15 18 16 21 17 12 17 24 26 27 28 32 36 43 47 48 49 49 48 47 47 48 46 45 44 43 44 44 44 44 43 43 43 41
14 17 20 17 15 17 20 20 22 20 15 15 13 13 14 10 11 12 21 24 26 30 34 41 46 48 48 49 48 47 48 47 45 44 42 42 43 43 44 44 43 42 41 38
15 18 18 20 17 15 16 19 19 19 19 20 22 20 16 15 14 13 13 19 24 28 33 36 44 47 48 49 49 48 48 47 45 44 42 42 43 43 43 42 41 40 38 36
16 17 16 19 17 25 17 19 17 16 16 19 21 17 17 15 14 15 15 15 23 27 29 31 40 46 48 49 49 49 48 47 45 43 42 42 43 42 41 40 37 39 38 36